• In Latvia
  • List of Countries
  • For 7 days
  • Water Temperature
  • Satellite Maps
  • Weather Map
  • Weather Widgets
  • user-avatar
    Login

    Hourly Weather Wagadugu

    Today, 21 August, Tuesday

    Time Temperature Precipitation Wind Pressure Humidity
    00:00 +28°C° 0 mm 3 mps 733 mmHg 74%
    01:00 +28°C° 0.8 mm 3 mps 733 mmHg 76%
    02:00 +28°C° 0.8 mm 3 mps 733 mmHg 77%
    03:00 +27°C° 0.8 mm 3 mps 733 mmHg 79%
    04:00 +27°C° 1.5 mm 3 mps 733 mmHg 80%
    05:00 +27°C° 1.5 mm 3 mps 733 mmHg 81%
    06:00 +27°C° 0 mm 3 mps 733 mmHg 81%
    07:00 +27°C° 4.4 mm 3 mps 733 mmHg 82%
    08:00 +27°C° 4.4 mm 4 mps 734 mmHg 83%
    09:00 +27°C° 4.4 mm 4 mps 734 mmHg 84%
    10:00 +28°C° 0.1 mm 4 mps 734 mmHg 77%
    11:00 +30°C° 0.1 mm 4 mps 733 mmHg 70%
    12:00 +31°C° 0 mm 2 mps 733 mmHg 60%
    13:00 +31°C° 0 mm 2 mps 733 mmHg 58%
    14:00 +33°C° 0 mm 3 mps 732 mmHg 57%
    15:00 +33°C° 0 mm 3 mps 732 mmHg 55%
    16:00 +31°C° 0 mm 3 mps 732 mmHg 59%
    17:00 +31°C° 0 mm 3 mps 731 mmHg 62%
    18:00 +30°C° 0 mm 2 mps 731 mmHg 66%
    19:00 +30°C° 0 mm 2 mps 732 mmHg 68%
    20:00 +29°C° 0 mm 2 mps 732 mmHg 71%
    21:00 +28°C° 0 mm 2 mps 732 mmHg 73%
    22:00 +28°C° 0 mm 2 mps 732 mmHg 74%
    23:00 +28°C° 0 mm 2 mps 732 mmHg 75%

    Tomorrow, 22 August, Wednesday

    Time Temperature Precipitation Wind Pressure Humidity
    00:00 +28°C° 0 mm 2 mps 733 mmHg 76%
    01:00 +27°C° 0 mm 2 mps 732 mmHg 77%
    02:00 +27°C° 0 mm 2 mps 732 mmHg 78%
    03:00 +27°C° 0 mm 2 mps 732 mmHg 80%
    04:00 +26°C° 0 mm 3 mps 732 mmHg 81%
    05:00 +26°C° 0 mm 3 mps 732 mmHg 82%
    06:00 +26°C° 0 mm 3 mps 732 mmHg 84%
    07:00 +27°C° 0 mm 3 mps 733 mmHg 80%
    08:00 +28°C° 0 mm 4 mps 733 mmHg 76%
    09:00 +29°C° 0 mm 4 mps 734 mmHg 72%
    10:00 +30°C° 0 mm 4 mps 734 mmHg 67%
    11:00 +33°C° 0 mm 3 mps 733 mmHg 61%
    12:00 +34°C° 0 mm 2 mps 733 mmHg 55%
    13:00 +34°C° 0.1 mm 2 mps 733 mmHg 53%
    14:00 +35°C° 0.1 mm 2 mps 732 mmHg 52%
    15:00 +35°C° 0.1 mm 2 mps 731 mmHg 50%
    16:00 +34°C° 0.6 mm 3 mps 731 mmHg 56%
    17:00 +33°C° 0.6 mm 3 mps 731 mmHg 63%
    18:00 +30°C° 0.6 mm 4 mps 731 mmHg 69%
    19:00 +29°C° 0.2 mm 4 mps 732 mmHg 72%
    20:00 +29°C° 0.2 mm 3 mps 732 mmHg 75%
    21:00 +28°C° 0.2 mm 3 mps 733 mmHg 77%
    22:00 +28°C° 0.1 mm 3 mps 733 mmHg 77%
    23:00 +27°C° 0.1 mm 2 mps 733 mmHg 78%

    Day after tomorrow, 23 August, Thursday

    Time Temperature Precipitation Wind Pressure Humidity
    00:00 +27°C° 0.1 mm 2 mps 733 mmHg 78%
    01:00 +27°C° 0 mm 2 mps 733 mmHg 79%
    02:00 +26°C° 0 mm 3 mps 732 mmHg 81%
    03:00 +26°C° 0 mm 3 mps 732 mmHg 82%
    04:00 +26°C° 0 mm 3 mps 732 mmHg 84%
    05:00 +25°C° 0 mm 4 mps 733 mmHg 86%
    06:00 +25°C° 0 mm 4 mps 733 mmHg 88%
    07:00 +27°C° 0.1 mm 4 mps 733 mmHg 83%
    08:00 +28°C° 0.1 mm 4 mps 734 mmHg 78%
    09:00 +29°C° 0.1 mm 4 mps 734 mmHg 73%
    10:00 +30°C° 0 mm 3 mps 734 mmHg 68%
    11:00 +31°C° 0 mm 3 mps 734 mmHg 63%
    12:00 +32°C° 0 mm 2 mps 734 mmHg 58%
    13:00 +34°C° 0.6 mm 2 mps 733 mmHg 56%
    14:00 +34°C° 0.6 mm 2 mps 732 mmHg 54%
    15:00 +35°C° 0.6 mm 2 mps 731 mmHg 53%
    16:00 +34°C° 0 mm 2 mps 731 mmHg 57%
    17:00 +32°C° 0 mm 1 mps 731 mmHg 61%
    18:00 +31°C° 0 mm 1 mps 731 mmHg 65%
    19:00 +31°C° 0 mm 2 mps 731 mmHg 67%
    20:00 +30°C° 0 mm 2 mps 732 mmHg 68%
    21:00 +29°C° 0 mm 2 mps 732 mmHg 70%
    22:00 +29°C° 0 mm 2 mps 732 mmHg 71%
    23:00 +28°C° 0 mm 2 mps 732 mmHg 73%

    24 August, Friday

    Time Temperature Precipitation Wind Pressure Humidity
    00:00 +28°C° 0 mm 1 mps 732 mmHg 75%
    01:00 +28°C° 1.3 mm 2 mps 732 mmHg 78%
    02:00 +27°C° 1.3 mm 2 mps 732 mmHg 81%
    03:00 +27°C° 1.3 mm 2 mps 731 mmHg 84%
    04:00 +27°C° 1.2 mm 2 mps 732 mmHg 84%
    05:00 +27°C° 1.2 mm 3 mps 732 mmHg 84%
    06:00 +26°C° 1.2 mm 3 mps 732 mmHg 84%
    07:00 +27°C° 0.4 mm 4 mps 732 mmHg 81%
    08:00 +28°C° 0.4 mm 4 mps 733 mmHg 78%
    09:00 +28°C° 0.4 mm 5 mps 734 mmHg 75%
    10:00 +30°C° 0 mm 5 mps 733 mmHg 70%
    11:00 +32°C° 0 mm 5 mps 733 mmHg 66%
    12:00 +33°C° 0 mm 4 mps 733 mmHg 61%
    13:00 +33°C° 0.7 mm 3 mps 732 mmHg 61%
    14:00 +32°C° 0.7 mm 2 mps 731 mmHg 60%
    15:00 +32°C° 0.7 mm 1 mps 731 mmHg 60%
    16:00 +31°C° 1.5 mm 1 mps 731 mmHg 64%
    17:00 +31°C° 1.5 mm 1 mps 730 mmHg 69%
    18:00 +30°C° 1.5 mm 1 mps 730 mmHg 74%
    19:00 +30°C° 0.3 mm 1 mps 731 mmHg 75%
    20:00 +29°C° 0.3 mm 1 mps 731 mmHg 75%
    21:00 +28°C° 0.3 mm 2 mps 732 mmHg 76%
    22:00 +28°C° 0.2 mm 2 mps 732 mmHg 78%
    23:00 +27°C° 0.2 mm 2 mps 732 mmHg 80%

    25 August, Saturday

    Time Temperature Precipitation Wind Pressure Humidity
    00:00 +27°C° 0.2 mm 3 mps 732 mmHg 82%
    01:00 +27°C° 0.1 mm 3 mps 732 mmHg 84%
    02:00 +26°C° 0.1 mm 3 mps 732 mmHg 85%
    03:00 +26°C° 0.1 mm 3 mps 731 mmHg 86%
    04:00 +26°C° 0.1 mm 3 mps 732 mmHg 87%
    05:00 +26°C° 0.1 mm 3 mps 732 mmHg 88%
    06:00 +25°C° 0.1 mm 3 mps 732 mmHg 89%
    07:00 +27°C° 0 mm 3 mps 733 mmHg 85%
    08:00 +28°C° 0 mm 4 mps 733 mmHg 80%
    09:00 +29°C° 0 mm 5 mps 734 mmHg 75%
    10:00 +30°C° 0 mm 4 mps 733 mmHg 71%
    11:00 +32°C° 0 mm 4 mps 733 mmHg 66%
    12:00 +33°C° 0 mm 4 mps 733 mmHg 61%
    13:00 +33°C° 0 mm 4 mps 732 mmHg 61%
    14:00 +33°C° 0 mm 4 mps 731 mmHg 60%
    15:00 +34°C° 0 mm 4 mps 731 mmHg 59%
    16:00 +33°C° 0.5 mm 4 mps 731 mmHg 64%
    17:00 +31°C° 0.5 mm 3 mps 731 mmHg 69%
    18:00 +30°C° 0.5 mm 3 mps 731 mmHg 74%
    19:00 +29°C° 0.7 mm 3 mps 731 mmHg 78%
    20:00 +28°C° 0.7 mm 3 mps 732 mmHg 81%
    21:00 +27°C° 0.7 mm 3 mps 733 mmHg 85%
    22:00 +27°C° 1.1 mm 3 mps 733 mmHg 85%
    23:00 +27°C° 1.1 mm 3 mps 733 mmHg 85%

    26 August, Sunday

    Time Temperature Precipitation Wind Pressure Humidity
    00:00 +26°C° 1.1 mm 3 mps 733 mmHg 85%
    01:00 +26°C° 1.7 mm 3 mps 733 mmHg 85%
    02:00 +26°C° 1.7 mm 4 mps 733 mmHg 85%
    03:00 +26°C° 1.7 mm 4 mps 733 mmHg 84%
    04:00 +26°C° 0.8 mm 4 mps 733 mmHg 86%
    05:00 +25°C° 0.8 mm 4 mps 733 mmHg 87%
    06:00 +25°C° 0.8 mm 4 mps 734 mmHg 89%
    07:00 +26°C° 0.2 mm 4 mps 734 mmHg 86%
    08:00 +26°C° 0.2 mm 5 mps 735 mmHg 84%
    09:00 +27°C° 0.2 mm 5 mps 735 mmHg 82%
    10:00 +28°C° 0 mm 5 mps 735 mmHg 77%
    11:00 +29°C° 0 mm 5 mps 735 mmHg 72%
    12:00 +32°C° 0 mm 5 mps 734 mmHg 66%
    13:00 +32°C° 0 mm 4 mps 733 mmHg 64%
    14:00 +31°C° 0 mm 3 mps 733 mmHg 63%
    15:00 +33°C° 0 mm 3 mps 732 mmHg 61%
    16:00 +31°C° 0 mm 3 mps 732 mmHg 63%
    17:00 +31°C° 0 mm 2 mps 732 mmHg 66%
    18:00 +30°C° 0 mm 2 mps 732 mmHg 68%
    19:00 +30°C° 0 mm 2 mps 733 mmHg 70%
    20:00 +29°C° 0 mm 2 mps 733 mmHg 72%
    21:00 +28°C° 0 mm 2 mps 734 mmHg 75%
    22:00 +28°C° 0 mm 2 mps 734 mmHg 76%
    23:00 +28°C° 0 mm 2 mps 733 mmHg 78%
    Show more